Regional Weather Roundup
Issued by NWS Northern Indiana

Home | Current Version | Previous Version | Graphics & Text | Print | Product List | Glossary On
Versions: 1 2 3 4 5 6 7 8 9 10 11 12 13 14 15 16 17 18 19 20 21 22 23 24 25 26 27 28 29 30 31 32 33 34 35 36 37 38 39 40 41 42 43 44 45 46 47 48 49 50
000
ASUS43 KIWX 232310
RWRIWX

KIWX WEATHER ROUNDUP
NATIONAL WEATHER SERVICE NORTHERN INDIANA
700 PM EDT MON APR 23 2018

NOTE: "FAIR" INDICATES FEW OR NO CLOUDS BELOW 12,000 FEET WITH NO
SIGNIFICANT WEATHER AND/OR OBSTRUCTIONS TO VISIBILITY.

* THESE STATIONS ARE NOT UNDER NWS QUALITY CONTROL. THEY ALSO MAY NOT
  REPORT WEATHER SUCH AS PRECIPITATION OR FOG.

INZ001>027-240000-
NORTHERN INDIANA

CITY           SKY/WX    TMP DP  RH WIND       PRES   REMARKS
GARY*          CLOUDY    48  32  53 N3        30.12S
VALPARAISO     LGT RAIN  58  49  72 VRB5      30.10S
MICHIGAN CITY* PTSUNNY   54  34  47 CALM      30.11S
LAPORTE*       PTSUNNY   60  50  70 S7        30.11R
KNOX*          CLOUDY    57  54  88 SE7       30.09F
SOUTH BEND     CLOUDY    60  49  66 S13       30.12R
ELKHART*       LGT RAIN  61  50  67 S14G21    30.10R
GOSHEN         CLOUDY    60  51  72 S16       30.11R
MONTICELLO*    CLOUDY    56  55  94 E7        30.07S
LOGANSPORT*    CLOUDY    55  54  94 E14       30.09S
ROCHESTER*     PTSUNNY   59  54  82 SE12      30.10F
WARSAW*        CLOUDY    57  52  82 SE9       30.11S
AUBURN*        DRIZZLE   55  52  88 SE5       30.14S
FORT WAYNE     CLOUDY    58  52  80 SE16G24   30.13F
HUNTINGTON*    CLOUDY    56  52  84 SE15G24   30.11F
MARION*        LGT RAIN  55  52  92 SE17      30.09F

$$
INZ028>050-240000-
CENTRAL INDIANA

CITY           SKY/WX    TMP DP  RH WIND       PRES   REMARKS
LAFAYETTE      CLOUDY    56  54  93 E15       30.05F
KOKOMO*        LGT RAIN  56  54  93 E13       30.08F FOG
MUNCIE*        LGT RAIN  56  52  86 SE18      30.08F
INDIANAPOLIS   LGT RAIN  55  54  96 E14       30.03F

$$
MIZ043>046-050>051-056>058-064>065-071>073-077>080-240000-
SOUTHWEST LOWER MICHIGAN

CITY           SKY/WX    TMP DP  RH WIND       PRES   REMARKS
BATTLE CREEK   FAIR      70  42  36 SE9       30.09F
BENTON HARBOR  FAIR      55  32  41 VRB5      30.08R
COLDWATER*     CLOUDY    64  46  53 S7        30.12R
HILLSDALE*     CLOUDY    63  45  51 S14G20    30.13R
HOLLAND        FAIR      73  40  30 NE8       30.07F
GRAND RAPIDS   PTSUNNY   71  40  32 E9        30.08F
KALAMAZOO      FAIR      72  40  31 SE9       30.08S
STURGIS*       CLOUDY    63  51  65 S14       30.11R
THREE RIVERS*  PTSUNNY   64  48  56 S15       30.11R

$$
OHZ001>008-015>018-024>025-240000-
NORTHWEST OHIO

CITY           SKY/WX    TMP DP  RH WIND       PRES   REMARKS
WAUSEON*       CLOUDY    61  52  72 S14G25    30.16R
DEFIANCE       CLOUDY    58  52  80 S12G17    30.14S
FINDLAY        PTSUNNY   59  45  59 S22G28    30.15F
TOLEDO EXPRESS CLOUDY    62  52  69 S13G22    30.16R
TOLEDO METCALF PTSUNNY   61  50  67 S16       30.17R
LIMA           CLOUDY    55  48  77 SE17      30.15F

$$
AND FOR LAKE MICHIGAN COASTAL AND OPEN LAKE BUOY OBSERVATIONS

STATION/POSITION TEMP    WIND        PRES    VSBY  WAVE
                 AIR SEA DIR/SP/G                  HT/PER
                 (F)     (DEG/KT/KT) (MB)    (MI)  (FT/S)
CALUMET HARBOR    45     350/  8/ 12 1019.2R
MICHIGAN CITY     43     210/  4/  5   N/A
BURNS HARBOR      43     280/  2/  4 1020.0
SAINT JOSEPH      49      20/  7/  9 1019.6
4 MI NW BRIDGMAN  45 42  360/  2/  4 1019.8          1/ 3

$$
&&




USA.gov is the U.S. government's official web portal to all federal, state and local government web resources and services.